Regional Weather Roundup
Issued by NWS Upton, NY

Current Version | Previous Version | Graphics & Text | Print | Product List | Glossary Off
Versions: 1 2 3 4 5 6 7 8 9 10 11 12 13 14 15 16 17 18 19 20 21 22 23 24 25 26 27 28 29 30 31 32 33 34 35 36 37 38 39 40 41 42 43 44 45 46 47 48 49 50

000
ASUS41 KOKX 212308
RWROKX

REGIONAL WEATHER ROUNDUP
NATIONAL WEATHER SERVICE NEW YORK NY
600 PM EST TUE FEB 21 2017

NOTE: "FAIR" INDICATES FEW OR NO CLOUDS BELOW 12,000 FEET WITH NO
SIGNIFICANT WEATHER AND/OR OBSTRUCTIONS TO VISIBILITY.

NYZ071-072-176-178-NJZ106-104-220000-
NEW YORK CITY METRO AREA

CITY           SKY/WX    TMP DP  RH WIND       PRES   REMARKS
Central Park   CLOUDY    42  31  64 VRB3      30.23S
Wall St Helipt NOT AVBL
LaGuardia APRT NOT AVBL
Kennedy INTL   NOT AVBL
Breezy Point     N/A     39 N/A N/A S12         N/A  WCI  32
Newark/Liberty CLOUDY    43  32  65 SE9       30.21R
Teterboro      NOT AVBL
$$

NYZ177-179-078>081-220000-
LONG ISLAND NEW YORK

CITY           SKY/WX    TMP DP  RH WIND       PRES   REMARKS
Jones Beach      N/A     41 N/A N/A S7          N/A
Matinecock PT  NOT AVBL
Farmingdale    NOT AVBL
MacArthur/ISP  NOT AVBL
Shirley        NOT AVBL
Westhampton    NOT AVBL
Southampton    NOT AVBL
Bridgehampton  NOT AVBL
East Hampton     N/A     38  30  71 CALM      30.25S
Montauk          N/A     40  31  70 VRB3      30.26S
$$

NYZ052-065-067-220000-
HUDSON VALLEY

CITY           SKY/WX    TMP DP  RH WIND       PRES   REMARKS
White Plains   NOT AVBL
Newburgh       MOCLDY    43  28  56 S6        30.17S
Montgomery     NOT AVBL
Poughkeepsie   NOT AVBL
Albany         CLOUDY    43  21  41 S12G21    30.11R
$$

NJZ001-105-106-008-010-013-015-019>022-104-220000-
NEW JERSEY

CITY           SKY/WX    TMP DP  RH WIND       PRES   REMARKS
Newark/Liberty CLOUDY    43  32  65 SE9       30.21R
Teterboro      NOT AVBL
Caldwell       NOT AVBL
Somerville     NOT AVBL
Linden         NOT AVBL
Sussex         NOT AVBL
Andover          N/A     45  26  47 S5        30.16S
Trenton        NOT AVBL
Millville      NOT AVBL
Atlantic City  MOCLDY    43  32  65 SE7       30.22F
Wrightstown    CLOUDY    44  31  61 S12       30.18S
Toms River     NOT AVBL
Belmar         NOT AVBL
$$

PAZ047>061-062-071-220000-
EASTERN PENNSYLVANIA

CITY           SKY/WX    TMP DP  RH WIND       PRES   REMARKS
Philadelphia   NOT AVBL
Allentown      NOT AVBL
Scranton       NOT AVBL
$$

CTZ002-004>006-009-010-012-RIZ004-006-007-MAZ004-011-015-220000-
SOUTHERN NEW ENGLAND
 IN CT

CITY           SKY/WX    TMP DP  RH WIND       PRES   REMARKS
Bradley INTL   MOCLDY    40  24  53 S10       30.17F WCI  33
Hartford       CLOUDY    41  24  51 S8        30.20F
Danbury        NOT AVBL
Wtrbury/Oxford MOCLDY    37  23  56 SW8       30.20F WCI  31
Bridgeport     CLEAR     43  30  61 SW10      30.22F
Meriden        CLOUDY    41  22  46 S6        30.20F
New Haven      NOT AVBL
Chester          N/A     37  28  70 SE7       30.20F WCI  32
Groton         PTCLDY    39  32  76 S13       30.24S WCI  31
Wilimantic     CLOUDY    42  22  44 S9        30.22S

 IN RI

CITY           SKY/WX    TMP DP  RH WIND       PRES   REMARKS
Providence     CLOUDY    40  25  55 S10       30.24S WCI  33
Block Island   CLOUDY    38  29  70 SW8       30.27R WCI  32
Westerly       PTCLDY    40  28  62 S7        30.26R
 IN MA

CITY           SKY/WX    TMP DP  RH WIND       PRES   REMARKS
Boston         CLOUDY    37  29  72 SE10      30.22F WCI  30
Worcester      CLOUDY    39  15  37 S9        30.16S WCI  33
Westfield      CLOUDY    40  18  41 S9        30.16F WCI  34
Provincetown   PTCLDY    36  27  69 SE6       30.24F WCI  31
Nantucket      PTCLDY    35  25  66 CALM      30.26R
$$

ANZ330-335-338-340-345-350-353-355-220000-
COASTAL MARINE OBSERVATIONS


STATION/POSITION TIME  SKY/WX   TEMP    WIND        PRES    VSBY  WAVE
                                AIR SEA DIR/SP/G                  HT/PER
                 (UTC)          (F)     (DEG/KT/KT) (MB)    (MI)  (FT/S)
NY HARB ENTRANCE 2150            42 42  180/ 12/ 14 1023.7          2/ 5
20 S FIRE ISLAND 2250            42 43  170/ 10/ 12 1023.6          2/ 5
GREAT SOUTH BAY  NOT AVBL
23 SSW MONTAUK P 2150            41 46              1025.1          2/ 6
15 E BARNEGAT LI 2230               43                N/A           3/ 8
HUDSON CANYON    2150               50              1024.9          3/ 5
KINGS POINT      2236            41 39              1022.7
EXECUTION ROCKS  NOT AVBL
CENTRAL LI SOUND 2230            40     180/  6/  6   N/A           0
EASTERN LI SOUND NOT AVBL
ROBBINS REEF     2236            41     160/ 19/ 21 1023.3
$$


>>>>>>>>>>>>>>>>>>>>>>>>>>>> KEY <<<<<<<<<<<<<<<<<<<<<<<<<<<
>                                                          <
>     SKY/WX - Sky Condition/Present Weather               <
>     TMP    - Temperature in Fahrenheit                   <
>     DP     - Dew Point in Fahrenheit                     <
>     RH     - Relative Humidity in Percent                <
>     WIND   - Direction (from) and Speed in MPH           <
>     PRES   - Mean Sea Level Pressure (inches of Hg)      <
>     WCI    - Wind Chill Index                            <
>     VSB    - VISIBILITY IN MILES                         <
>     HX     - HEAT INDEX                                  <
>     TC     - TEMPERATURE IN CELSIUS                      <
>     VRB    - VARIABLE WIND DIRECTION                     <
>                                                          <
>>>>>>>>>>>>>>>>>>>>>>>>>>>> KEY <<<<<<<<<<<<<<<<<<<<<<<<<<<



USA.gov is the U.S. government's official web portal to all federal, state and local government web resources and services.